Weather History for K06D - December, 2012

Change the Weather History Date:

Saturday, December 8, 2012

  Actual Average (KRUG) Record (KRUG)
Temperature  
Mean Temperature 0 °F -  
Max Temperature 5 °F 22 °F 49 °F (1990)
Min Temperature -7 °F 4 °F -22 °F (2013)
Degree Days  
Heating Degree Days 64    
Moisture  
Dew Point -1 °F    
Average Humidity 90    
Maximum Humidity 100    
Minimum Humidity 78    
Precipitation  
Precipitation 5.17 in - - ()
Sea Level Pressure  
Sea Level Pressure 29.99 in    
Wind  
Wind Speed 12 mph (NE)    
Max Wind Speed 21 mph    
Max Gust Speed 24 mph    
Visibility 6 miles    
Events Rain , Snow    
Averages and records for this station are not official NWS values.
T = Trace of Precipitation, MM = Missing Value Source: NWS Daily Summary

Daily Weather History Graph

Daily Weather History Graph

Search for Another Location

Airport or City:

Trip Planner

Search our weather history database for the weather conditions in past years. The results will help you decide how hot, cold, wet, or windy it might be!

Date:

Astronomy

Dec. 08, 2012 Rise Set
Actual Time 8:19 AM CST 4:41 PM CST
Civil Twilight 7:42 AM CST 5:18 PM CST
Nautical Twilight 7:02 AM CST 5:58 PM CST
Astronomical Twilight 6:24 AM CST 6:37 PM CST
Moon 2:23 AM CST (12/8) 1:32 PM CST (12/8)
Length of Visible Light 9h 36m
Length of Day
8h 22m
Waning Crescent, 28% of the Moon is Illuminated
Dec 8
Waning Crescent
Dec 13
New
Dec 19
First Quarter
Dec 28
Full
Jan 4
Last Quarter

Hourly Weather History & Observations

Time (CST) Temp. Windchill Dew Point Humidity Pressure Visibility Wind Dir Wind Speed Gust Speed Precip Events Conditions
12:15 AM 3.2 °F -9.1 °F 1.4 °F 92% 29.97 in 10.0 mi East 6.9 mph - N/A   Overcast
12:35 AM 3.2 °F -7.8 °F 1.4 °F 92% 29.97 in 10.0 mi ESE 5.8 mph - N/A   Overcast
12:55 AM 3.2 °F -10.3 °F 1.4 °F 92% 29.96 in 10.0 mi East 8.1 mph - N/A   Overcast
1:15 AM 3.2 °F -10.3 °F 1.4 °F 92% 29.95 in 10.0 mi East 8.1 mph - N/A   Overcast
1:35 AM 3.2 °F -10.3 °F 1.4 °F 92% 29.94 in 3.0 mi East 8.1 mph - N/A Snow Light Snow
1:55 AM 3.2 °F -13.1 °F 1.4 °F 92% 29.93 in 3.0 mi East 11.5 mph - 0.01 in Snow Light Snow
2:15 AM 3.2 °F -11.3 °F 1.4 °F 92% 29.93 in 1.5 mi East 9.2 mph - 0.04 in Snow Light Snow
2:35 AM 3.2 °F -11.3 °F 1.4 °F 92% 29.94 in 2.0 mi East 9.2 mph - 0.08 in Snow Light Snow
2:55 AM 3.2 °F -11.3 °F 1.4 °F 92% 29.93 in 4.0 mi East 9.2 mph - 0.10 in Snow Light Snow
3:15 AM 1.4 °F -13.5 °F -0.4 °F 92% 29.92 in 1.0 mi East 9.2 mph - 0.10 in Snow Light Snow
3:35 AM 1.4 °F -13.5 °F -0.4 °F 92% 29.91 in 2.0 mi East 9.2 mph - 0.25 in Snow Light Snow
3:55 AM 1.4 °F -14.5 °F -0.4 °F 92% 29.92 in 1.0 mi East 10.4 mph - 0.34 in Snow Light Snow
4:15 AM 1.4 °F -13.5 °F -0.4 °F 92% 29.92 in 0.8 mi East 9.2 mph - 0.12 in Snow Light Snow
4:35 AM 1.4 °F -12.5 °F -0.4 °F 92% 29.91 in 0.8 mi East 8.1 mph - 0.29 in Snow Light Snow
4:55 AM 1.4 °F -12.5 °F -0.4 °F 92% 29.92 in 0.5 mi East 8.1 mph - 1.36 in Snow Snow
5:15 AM 1.4 °F -13.5 °F -0.4 °F 92% 29.91 in 0.8 mi ENE 9.2 mph - 1.22 in Snow Light Snow
5:35 AM 1.4 °F -13.5 °F -0.4 °F 92% 29.91 in 0.8 mi ENE 9.2 mph - 2.22 in Snow Light Snow
5:55 AM 1.4 °F -13.5 °F -0.4 °F 92% 29.91 in 2.5 mi ENE 9.2 mph - 2.49 in Snow Light Snow
6:15 AM 1.4 °F -13.5 °F -0.4 °F 92% 29.91 in 10.0 mi ENE 9.2 mph - N/A Snow Light Snow
6:35 AM 3.2 °F -11.3 °F -0.4 °F 85% 29.91 in 10.0 mi NE 9.2 mph - 0.01 in Snow Light Snow
6:55 AM 1.4 °F -14.5 °F -0.4 °F 92% 29.91 in 10.0 mi NE 10.4 mph - 0.02 in Snow Light Snow
7:15 AM 1.4 °F -15.3 °F -0.4 °F 92% 29.91 in 10.0 mi NE 11.5 mph - N/A Snow Light Snow
7:35 AM 1.4 °F -15.3 °F -0.4 °F 92% 29.91 in 10.0 mi NE 11.5 mph - 0.02 in Snow Light Snow
7:55 AM 1.4 °F -15.3 °F -0.4 °F 92% 29.91 in 7.0 mi NE 11.5 mph - 0.05 in Snow Light Snow
8:15 AM 1.4 °F -13.5 °F -0.4 °F 92% 29.91 in 5.0 mi NE 9.2 mph - 0.01 in Snow Light Snow
8:35 AM 1.4 °F -14.5 °F -0.4 °F 92% 29.92 in 5.0 mi NE 10.4 mph - 0.05 in Snow Light Snow
8:55 AM 1.4 °F -15.3 °F -0.4 °F 92% 29.91 in 3.0 mi NE 11.5 mph - 0.09 in Snow Light Snow
9:15 AM 1.4 °F -13.5 °F -0.4 °F 92% 29.92 in 5.0 mi NE 9.2 mph - 0.03 in Snow Light Snow
9:35 AM 1.4 °F -15.3 °F -0.4 °F 92% 29.92 in 1.0 mi NE 11.5 mph - 0.22 in Snow Light Snow
9:55 AM 1.4 °F -14.5 °F -0.4 °F 92% 29.93 in 4.0 mi NE 10.4 mph - 0.33 in Snow Light Snow
10:15 AM 3.2 °F -13.9 °F 1.4 °F 92% 29.93 in 3.0 mi NNE 12.7 mph - 0.05 in Snow Light Snow
10:35 AM 3.2 °F -14.6 °F 1.4 °F 92% 29.93 in 5.0 mi NE 13.8 mph - 0.13 in Snow Light Snow
10:55 AM 3.2 °F -15.3 °F 1.4 °F 92% 29.94 in 7.0 mi NNE 15.0 mph - 0.16 in Snow Light Snow
11:15 AM 5.0 °F -13.0 °F 1.4 °F 85% 29.94 in 10.0 mi NNE 15.0 mph - 0.01 in Snow Light Snow
11:35 AM 3.2 °F -15.3 °F 1.4 °F 92% 29.94 in 10.0 mi NNE 15.0 mph - 0.02 in Snow Light Snow
11:55 AM 5.0 °F -13.6 °F 1.4 °F 85% 29.93 in 10.0 mi NNE 16.1 mph - 0.03 in Snow Light Snow
12:15 PM 5.0 °F -14.7 °F 1.4 °F 85% 29.93 in 10.0 mi NNE 18.4 mph - N/A Rain Light Freezing Rain
12:35 PM 5.0 °F -13.0 °F 1.4 °F 85% 29.94 in 10.0 mi NNE 15.0 mph - 0.01 in Rain Light Freezing Rain
12:55 PM 5.0 °F -13.0 °F 1.4 °F 85% 29.94 in 10.0 mi NNE 15.0 mph - 0.02 in Snow Light Snow
1:15 PM 5.0 °F -13.0 °F 1.4 °F 85% 29.94 in 3.0 mi NNE 15.0 mph - 0.02 in Snow Light Snow
1:35 PM 5.0 °F -14.7 °F 1.4 °F 85% 29.94 in 2.5 mi NNE 18.4 mph - 0.06 in Snow Light Snow
1:55 PM 5.0 °F -14.2 °F 1.4 °F 85% 29.94 in 4.0 mi NNE 17.3 mph - 0.08 in Snow Light Snow
2:15 PM 5.0 °F -14.2 °F 1.4 °F 85% 29.94 in 3.0 mi NNE 17.3 mph - 0.02 in Snow Light Snow
2:35 PM 5.0 °F -15.2 °F 1.4 °F 85% 29.94 in 5.0 mi NNE 19.6 mph 24.2 mph 0.04 in Snow Light Snow
2:55 PM 5.0 °F -15.7 °F 1.4 °F 85% 29.95 in 3.0 mi NNE 20.7 mph - 0.06 in Snow Light Snow
3:15 PM 5.0 °F -15.2 °F 1.4 °F 85% 29.97 in 3.0 mi NNE 19.6 mph - 0.01 in Snow Light Snow
3:35 PM 3.2 °F -15.9 °F -0.4 °F 85% 29.98 in 3.0 mi NNE 16.1 mph - 0.03 in Rain Light Freezing Rain
3:55 PM 1.4 °F -19.4 °F -0.4 °F 92% 30.00 in 4.0 mi North 18.4 mph - 0.03 in Rain Light Freezing Rain
4:15 PM 1.4 °F -19.4 °F -0.4 °F 92% 30.01 in 4.0 mi North 18.4 mph - N/A Rain Light Freezing Rain
4:35 PM 1.4 °F -19.9 °F -0.4 °F 92% 30.02 in 3.0 mi North 19.6 mph - N/A Rain Light Freezing Rain
4:55 PM -0.4 °F -22.3 °F -0.4 °F 100% 30.03 in 2.5 mi North 19.6 mph - N/A   Overcast
5:15 PM -0.4 °F -22.8 °F -0.4 °F 100% 30.04 in 3.0 mi North 20.7 mph - N/A   Overcast
5:35 PM -0.4 °F -21.7 °F -0.4 °F 100% 30.05 in 3.0 mi NNE 18.4 mph - N/A   Overcast
5:55 PM -0.4 °F -21.7 °F -0.4 °F 100% 30.06 in 4.0 mi North 18.4 mph - N/A   Overcast
6:15 PM -0.4 °F -22.3 °F -2.2 °F 92% 30.07 in 5.0 mi North 19.6 mph - N/A   Overcast
6:35 PM -0.4 °F -21.7 °F -2.2 °F 92% 30.08 in 5.0 mi North 18.4 mph - N/A   Overcast
6:55 PM -0.4 °F -21.7 °F -2.2 °F 92% 30.09 in 5.0 mi North 18.4 mph - N/A   Overcast
7:15 PM -0.4 °F -22.3 °F -2.2 °F 92% 30.09 in 5.0 mi North 19.6 mph - N/A   Overcast
7:55 PM -0.4 °F -21.7 °F -2.2 °F 92% 30.11 in 5.0 mi North 18.4 mph - N/A   Overcast
8:15 PM -0.4 °F -21.2 °F -4.0 °F 85% 30.12 in 4.0 mi North 17.3 mph - N/A   Overcast
8:35 PM -2.2 °F -21.5 °F -4.0 °F 92% 30.13 in 6.0 mi North 13.8 mph - N/A   Overcast
8:55 PM -2.2 °F -22.2 °F -5.8 °F 85% 30.14 in 9.0 mi North 15.0 mph - N/A   Scattered Clouds
9:15 PM -2.2 °F -20.7 °F -5.8 °F 85% 30.15 in 10.0 mi North 12.7 mph - N/A   Partly Cloudy
9:35 PM -2.2 °F -21.5 °F -5.8 °F 85% 30.15 in 7.0 mi North 13.8 mph - N/A   Partly Cloudy
9:55 PM -4.0 °F -25.2 °F -7.6 °F 85% 30.16 in 9.0 mi North 16.1 mph - N/A   Partly Cloudy
10:15 PM -4.0 °F -24.5 °F -7.6 °F 85% 30.17 in 10.0 mi North 15.0 mph - N/A   Clear
10:35 PM -4.0 °F -23.7 °F -7.6 °F 85% 30.17 in 10.0 mi North 13.8 mph - N/A   Clear
10:55 PM -4.0 °F -23.7 °F -7.6 °F 85% 30.18 in 10.0 mi North 13.8 mph - N/A   Clear
11:15 PM -4.0 °F -24.5 °F -9.4 °F 78% 30.18 in 9.0 mi North 15.0 mph - N/A   Clear
11:35 PM -4.0 °F -24.5 °F -7.6 °F 85% 30.19 in 10.0 mi North 15.0 mph - N/A   Clear
11:55 PM -7.6 °F -28.3 °F -11.2 °F 84% 30.20 in 10.0 mi North 13.8 mph - N/A   Clear